BLOCK DM-SL DEB, 45041

Orbit data source: Space-Track

BLOCK DM-SL DEB, 45041 is space debris in GEO originally from a launch on Tue, 24 Dec 2019 UTC launched from the Tyuratam Missile And Space Complex (TTMTR). Debris objects in space refer to the collection of defunct objects orbiting the Earth. Examples of debris include non-operational satellites, rocket bodies, and fragments generated from explosions, collisions, or faulty payload assembly.

Not visible in the next 10 days
Identifier
45041, 2019-095C
Orbit
GEO
Last TLE update
23 hours ago
Origin
Manufacturer
RKKE
Mission
Spacecraft
Bus & Motor
SOZ, Unknown motor
Mass
56 kg wet, 56 kg dry
Launch date (UTC)
2019-12-24 (6 years ago)
Launch vehicle
Unknown
Launch site
Tyuratam Missile And Space Complex (TTMTR)
Object type
Payload
Rocket body
Debris
Shape & HBR
Cyl, 0.6 m
Radar Cross Section
0.660 m²

Expand to show TLE details & history

TLE from 23 hours ago
0 BLOCK DM-SL DEB
1 45041U 19095C   25199.03147735 -.00000090  00000-0  00000-0 0  9994
2 45041   4.5295  77.7280 0430459  21.5772 340.1250  1.03023307 20894
Epoch: 2025-07-18T00:45Z
TLE epoch observation values (Epoch: 2025-07-18T00:45:19.643Z)
Latitude
-0.00001°
Longitude
130.23202°
Altitude
33,360.527 km
Speed
3.23 km/s
True Right ascension
05h 10m 36s
True Declination
0° 00' 00"
Sunlit
Object was in daylight at epoch
Visualization orbit readout
Latitude
-0.80641°
Longitude
120.02098°
Altitude
33,494.269 km
Speed
3.22 km/s
Apparent Right ascension
04h 05m 50s
Apparent Declination
-6° 15' 22"
Sunlit
Object is in daylight
Visualization observer readout
Local Sidereal Time
12:13:52
Azimuth
286.8° WNW
Elevation
-28.296°
Doppler factor
1
Orbital elements
Apogee altitude
36,816.147 km
Perigee altitude
33,250.941 km
Semi-major axis
41,411.681 km
Eccentricity
0.04305
Inclination
4.5295°
RAAN
77.728°
Arg. of periapsis
21.5772°
True anomaly
338.35914°
Mean anomaly
340.125°
Eccentric anomaly
339.25124°
Mean motion
0.25755 °/min
Orbital period
1,397.8 mins
BSTAR
0
Loading maneuver chart data...
Loading SW <> Apogee altitude chart data...
Loading historical data...
Loading historical data...
Loading historical data...
Loading historical data...
Loading historical data...
Loading historical data...
Loading historical data...
Other satellites on launch #95 in the year 2019 (2019-12-24 UTC)
|